Regional Weather Roundup
Issued by NWS

Home | Current Version | Previous Version | Text Only | Print | Product List | Glossary On
Versions: 1 2 3 4 5 6 7 8 9 10 11 12 13 14 15 16 17 18 19 20 21 22 23 24 25 26 27 28 29 30 31 32 33 34 35 36 37 38 39 40 41 42 43 44 45 46 47 48 49 50
000
ASUS43 KOAX 270110
RWRNE

WEATHER ROUNDUP FOR NEBRASKA
NATIONAL WEATHER SERVICE OMAHA NE
800 PM CDT THU MAY 26 2016

NOTES: SATELLITE DATA IS BEING USED TO AUGMENT CLOUD COVER ABOVE
       12000 FEET.
       "FAIR" INDICATES FEW OR NO CLOUDS BELOW 12,000 FEET WITH NO
       SIGNIFICANT WEATHER AND/OR OBSTRUCTIONS TO VISIBILITY.

  * THESE STATIONS DO NOT REPORT WEATHER SUCH AS RAIN...SNOW OR FOG.

NEZ001>004-019>022-054>056-270200-
NEBRASKA PANHANDLE

CITY           SKY/WX    TMP DP  RH WIND       PRES   REMARKS
SCOTTSBLUFF    CLOUDY    62  40  44 NW9       29.85F
ALLIANCE       CLOUDY    61  42  49 N12       29.81F
CHADRON        CLOUDY    64  49  57 SW9       29.82F
KIMBALL        LGT RAIN  53  42  67 W13       29.87S
SIDNEY         CLOUDY    60  43  53 N13       29.83F
$$

NEZ057>060-069>072-079>082-270200-
SOUTHWEST NEBRASKA

CITY           SKY/WX    TMP DP  RH WIND       PRES   REMARKS
NORTH PLATTE   CLOUDY    64  52  64 NE8       29.74S
IMPERIAL       CLOUDY    65  47  52 NE17G23   29.71S
LEXINGTON      PTCLDY    66  58  75 E7        29.73R
MCCOOK         CLOUDY    65  59  81 NE13      29.69R THUNDER
OGALLALA       CLOUDY    66  43  43 N24G30    29.73F THUNDER
$$

NEZ005>010-023>029-035>040-094-270200-
NORTH CENTRAL NEBRASKA

CITY           SKY/WX    TMP DP  RH WIND       PRES   REMARKS
VALENTINE      CLOUDY    72  45  37 N7        29.76F
AINSWORTH      CLOUDY    70  55  58 E9        29.76F
BROKEN BOW     CLOUDY    71  53  52 E15       29.74F
O`NEILL        CLOUDY    70  60  69 NE9       29.77F
ORD            CLOUDY    72  55  55 E14       29.73S
THEDFORD       CLOUDY    73  50  43 NE5       29.77S
$$

NEZ041-046>049-061>064-073>077-083>087-270200-
SOUTH CENTRAL NEBRASKA

CITY           SKY/WX    TMP DP  RH WIND       PRES   REMARKS
GRAND ISLAND   CLOUDY    65  57  75 NW5       29.74R
AURORA         CLOUDY    63  59  88 W5        29.72R
HASTINGS       CLOUDY    64  57  78 SE9       29.72F
HEBRON         CLOUDY    61  60  97 E21       29.75R
HOLDREGE       PTCLDY    65  60  83 E9        29.69R
KEARNEY *      CLOUDY    64  55  72 E9        29.73R
YORK           CLOUDY    61  59  94 E26G32    29.70F
$$

NEZ011>018-030>034-042>045-270200-
NORTHEAST NEBRASKA

CITY           SKY/WX    TMP DP  RH WIND       PRES   REMARKS
NORFOLK        CLOUDY    65  57  75 SE22      29.76F
ALBION         CLOUDY    65  57  75 SE22G30   29.76R
BLAIR          LGT RAIN  64  58  80 SE13G22   29.86R
FREMONT        LGT RAIN  63  59  87 S16G22    29.85S
TEKAMAH        CLOUDY    67  59  75 S9        29.83R
WAYNE          CLOUDY    70  59  69 SE17G24   29.79F HAZE
$$

NEZ050>053-065>068-078-088>093-270200-
SOUTHEAST NEBRASKA

CITY           SKY/WX    TMP DP  RH WIND       PRES   REMARKS
LINCOLN        LGT RAIN  63  60  90 NE9       29.86F FOG
OMAHA EPPLEY   CLOUDY    65  58  78 E21       29.85R
BEATRICE       CLOUDY    62  58  86 E20G29    29.77F
FALLS CITY     RAIN      65  64  97 NE7       29.88R
NEBRASKA CITY  RAIN      64  58  83 E13       29.89R
PLATTSMOUTH    DRIZZLE   65  59  82 E12G21    29.88R
$$

NEZ044-045-051>053-067-270200-
OMAHA AREA

CITY           SKY/WX    TMP DP  RH WIND       PRES   REMARKS
OMAHA EPPLEY   CLOUDY    65  58  78 E21       29.85R
BLAIR          LGT RAIN  64  58  80 SE13G22   29.86R
FREMONT        LGT RAIN  63  59  87 S16G22    29.85S
MILLARD        RAIN      64  59  81 S7        29.89R
OFFUTT AFB     LGT RAIN  64  58  82 E13G29    29.86R
PLATTSMOUTH    DRIZZLE   65  59  82 E12G21    29.88R
WAHOO          HVY RAIN  63  60  91 S10       29.88R
$$



USA.gov is the U.S. government's official web portal to all federal, state and local government web resources and services.